When you browse on this site, cookies collect data to enhance your experience and personalize the content and advertising you see.
Visit our Privacy Policy to learn more. By continuing to use the site, you agree to this use of cookies and data.
  • In Österreich
  • Länderverzeichnis
  • Für 7 Tage
  • Wassertemperatur
  • Satellitenkarten
  • Wetterkarte
  • News
  • Widgets
  • user-avatar
    Anmelden

    Stündliche Wetter Sokolihino

    Heute, 20 Februar, Mittwoch

    Zeit Temperatur Niederschläge Wind Luftdruck Luftfeuchtigkeit
    00:00 0°C° 0.1 mm 4 m/S 731 mmHg 92%
    01:00 0°C° 0.1 mm 4 m/S 731 mmHg 92%
    02:00 0°C° 0 mm 5 m/S 730 mmHg 93%
    03:00 0°C° 0.1 mm 5 m/S 730 mmHg 93%
    04:00 0°C° 0.1 mm 4 m/S 730 mmHg 93%
    05:00 0°C° 0.1 mm 4 m/S 730 mmHg 93%
    06:00 0°C° 0.1 mm 4 m/S 729 mmHg 92%
    07:00 0°C° 0.1 mm 4 m/S 729 mmHg 92%
    08:00 0°C° 0.1 mm 5 m/S 729 mmHg 91%
    09:00 0°C° 0.1 mm 5 m/S 729 mmHg 90%
    10:00 0°C° 0.1 mm 5 m/S 729 mmHg 90%
    11:00 0°C° 0.1 mm 5 m/S 729 mmHg 89%
    12:00 0°C° 0.2 mm 5 m/S 728 mmHg 88%
    13:00 0°C° 0.2 mm 5 m/S 728 mmHg 87%
    14:00 +1°C° 0.2 mm 5 m/S 728 mmHg 86%
    15:00 0°C° 0.5 mm 5 m/S 727 mmHg 87%
    16:00 0°C° 0.5 mm 5 m/S 727 mmHg 87%
    17:00 0°C° 0.5 mm 5 m/S 727 mmHg 87%
    18:00 -1°C° 0.3 mm 5 m/S 727 mmHg 84%
    19:00 -2°C° 0.3 mm 5 m/S 727 mmHg 80%
    20:00 -4°C° 0.3 mm 6 m/S 728 mmHg 77%
    21:00 -5°C° 0.2 mm 6 m/S 728 mmHg 78%
    22:00 -5°C° 0.2 mm 6 m/S 729 mmHg 80%
    23:00 -6°C° 0.2 mm 6 m/S 730 mmHg 81%

    Morgen, 21 Februar, Donnerstag

    Zeit Temperatur Niederschläge Wind Luftdruck Luftfeuchtigkeit
    00:00 -6°C° 0.1 mm 6 m/S 730 mmHg 79%
    01:00 -8°C° 0.1 mm 6 m/S 730 mmHg 78%
    02:00 -9°C° 0.1 mm 6 m/S 731 mmHg 76%
    03:00 -9°C° 0.1 mm 6 m/S 731 mmHg 76%
    04:00 -9°C° 0.1 mm 6 m/S 731 mmHg 75%
    05:00 -9°C° 0.1 mm 7 m/S 732 mmHg 75%
    06:00 -9°C° 0.2 mm 7 m/S 732 mmHg 77%
    07:00 -9°C° 0.2 mm 7 m/S 733 mmHg 78%
    08:00 -9°C° 0.2 mm 7 m/S 734 mmHg 80%
    09:00 -9°C° 0.1 mm 7 m/S 734 mmHg 77%
    10:00 -9°C° 0.1 mm 7 m/S 735 mmHg 75%
    11:00 -9°C° 0.1 mm 7 m/S 736 mmHg 72%
    12:00 -9°C° 0 mm 7 m/S 737 mmHg 71%
    13:00 -9°C° 0 mm 6 m/S 738 mmHg 70%
    14:00 -9°C° 0 mm 6 m/S 738 mmHg 69%
    15:00 -9°C° 0 mm 6 m/S 739 mmHg 69%
    16:00 -10°C° 0 mm 6 m/S 740 mmHg 70%
    17:00 -11°C° 0 mm 5 m/S 740 mmHg 70%
    18:00 -11°C° 0 mm 5 m/S 741 mmHg 71%
    19:00 -12°C° 0 mm 5 m/S 742 mmHg 72%
    20:00 -12°C° 0 mm 5 m/S 743 mmHg 73%
    21:00 -12°C° 0 mm 5 m/S 743 mmHg 73%
    22:00 -12°C° 0 mm 4 m/S 743 mmHg 73%
    23:00 -12°C° 0 mm 4 m/S 744 mmHg 74%

    übermorgen, 22 Februar, Freitag

    Zeit Temperatur Niederschläge Wind Luftdruck Luftfeuchtigkeit
    00:00 -12°C° 0 mm 4 m/S 744 mmHg 74%
    01:00 -14°C° 0 mm 4 m/S 745 mmHg 75%
    02:00 -14°C° 0 mm 4 m/S 745 mmHg 76%
    03:00 -14°C° 0 mm 4 m/S 746 mmHg 76%
    04:00 -15°C° 0 mm 4 m/S 746 mmHg 76%
    05:00 -15°C° 0 mm 4 m/S 747 mmHg 75%
    06:00 -15°C° 0 mm 5 m/S 747 mmHg 76%
    07:00 -14°C° 0 mm 5 m/S 748 mmHg 76%
    08:00 -14°C° 0 mm 5 m/S 748 mmHg 76%
    09:00 -14°C° 0 mm 5 m/S 749 mmHg 73%
    10:00 -14°C° 0 mm 6 m/S 749 mmHg 70%
    11:00 -12°C° 0 mm 6 m/S 749 mmHg 67%
    12:00 -11°C° 0 mm 6 m/S 749 mmHg 64%
    13:00 -12°C° 0 mm 7 m/S 750 mmHg 61%
    14:00 -12°C° 0 mm 7 m/S 750 mmHg 58%
    15:00 -11°C° 0 mm 6 m/S 750 mmHg 62%
    16:00 -11°C° 0 mm 6 m/S 751 mmHg 66%
    17:00 -11°C° 0 mm 6 m/S 751 mmHg 70%
    18:00 -12°C° 0.1 mm 6 m/S 751 mmHg 71%
    19:00 -12°C° 0.1 mm 5 m/S 752 mmHg 73%
    20:00 -12°C° 0.1 mm 5 m/S 752 mmHg 74%
    21:00 -13°C° 0 mm 5 m/S 753 mmHg 75%
    22:00 -12°C° 0 mm 4 m/S 753 mmHg 76%
    23:00 -14°C° 0 mm 4 m/S 753 mmHg 78%

    23 Februar, Samstag

    Zeit Temperatur Niederschläge Wind Luftdruck Luftfeuchtigkeit
    00:00 -14°C° 0 mm 4 m/S 754 mmHg 79%
    01:00 -15°C° 0 mm 4 m/S 754 mmHg 81%
    02:00 -15°C° 0 mm 4 m/S 755 mmHg 83%
    03:00 -14°C° 0 mm 3 m/S 755 mmHg 84%
    04:00 -14°C° 0 mm 3 m/S 755 mmHg 85%
    05:00 -15°C° 0 mm 3 m/S 755 mmHg 87%
    06:00 -15°C° 0 mm 3 m/S 755 mmHg 87%
    07:00 -15°C° 0 mm 3 m/S 756 mmHg 87%
    08:00 -15°C° 0 mm 3 m/S 756 mmHg 87%
    09:00 -14°C° 0 mm 3 m/S 756 mmHg 82%
    10:00 -13°C° 0 mm 3 m/S 756 mmHg 77%
    11:00 -10°C° 0 mm 3 m/S 756 mmHg 72%
    12:00 -10°C° 0 mm 3 m/S 756 mmHg 70%
    13:00 -8°C° 0 mm 2 m/S 755 mmHg 68%
    14:00 -8°C° 0 mm 2 m/S 755 mmHg 66%
    15:00 -8°C° 0 mm 2 m/S 755 mmHg 67%
    16:00 -8°C° 0 mm 2 m/S 755 mmHg 69%
    17:00 -8°C° 0 mm 2 m/S 755 mmHg 71%
    18:00 -8°C° 0 mm 2 m/S 754 mmHg 73%
    19:00 -7°C° 0 mm 1 m/S 754 mmHg 75%
    20:00 -7°C° 0 mm 1 m/S 754 mmHg 77%
    21:00 -8°C° 0.1 mm 2 m/S 753 mmHg 81%
    22:00 -8°C° 0.1 mm 2 m/S 753 mmHg 84%
    23:00 -9°C° 0.1 mm 3 m/S 752 mmHg 88%

    24 Februar, Sonntag

    Zeit Temperatur Niederschläge Wind Luftdruck Luftfeuchtigkeit
    00:00 -7°C° 0.1 mm 2 m/S 752 mmHg 89%
    01:00 -7°C° 0.1 mm 2 m/S 752 mmHg 90%
    02:00 -7°C° 0.1 mm 2 m/S 752 mmHg 91%
    03:00 -7°C° 0.2 mm 2 m/S 752 mmHg 92%
    04:00 -6°C° 0.2 mm 2 m/S 751 mmHg 93%
    05:00 -6°C° 0.2 mm 2 m/S 751 mmHg 94%
    06:00 -4°C° 0.1 mm 1 m/S 751 mmHg 94%
    07:00 -4°C° 0.1 mm 1 m/S 751 mmHg 95%
    08:00 -4°C° 0.1 mm 1 m/S 751 mmHg 95%
    09:00 -2°C° 0 mm 1 m/S 752 mmHg 94%
    10:00 -1°C° 0 mm 1 m/S 752 mmHg 92%
    11:00 0°C° 0 mm 1 m/S 752 mmHg 90%
    12:00 -1°C° 0 mm 0 m/S 752 mmHg 90%
    13:00 -1°C° 0 mm 0 m/S 752 mmHg 90%
    14:00 0°C° 0 mm 0 m/S 752 mmHg 90%
    15:00 -1°C° 0 mm 0 m/S 752 mmHg 92%
    16:00 0°C° 0 mm 1 m/S 752 mmHg 94%
    17:00 -1°C° 0 mm 1 m/S 752 mmHg 95%
    18:00 -1°C° 0 mm 1 m/S 752 mmHg 96%
    19:00 -1°C° 0 mm 1 m/S 752 mmHg 96%
    20:00 -1°C° 0 mm 1 m/S 752 mmHg 96%
    21:00 -1°C° 0 mm 1 m/S 752 mmHg 96%
    22:00 -1°C° 0 mm 1 m/S 752 mmHg 95%
    23:00 -1°C° 0 mm 1 m/S 752 mmHg 94%

    25 Februar, Montag

    Zeit Temperatur Niederschläge Wind Luftdruck Luftfeuchtigkeit
    00:00 -2°C° 0 mm 2 m/S 751 mmHg 93%
    01:00 -2°C° 0 mm 2 m/S 751 mmHg 92%
    02:00 -2°C° 0 mm 2 m/S 751 mmHg 91%
    03:00 -2°C° 0 mm 2 m/S 750 mmHg 92%
    04:00 -2°C° 0 mm 2 m/S 750 mmHg 92%
    05:00 -2°C° 0 mm 3 m/S 749 mmHg 92%
    06:00 -2°C° 0 mm 3 m/S 749 mmHg 93%
    07:00 -2°C° 0 mm 3 m/S 748 mmHg 94%
    08:00 -2°C° 0 mm 3 m/S 748 mmHg 95%
    09:00 -1°C° 0 mm 3 m/S 748 mmHg 94%
    10:00 -1°C° 0 mm 3 m/S 748 mmHg 93%
    11:00 0°C° 0 mm 3 m/S 747 mmHg 91%
    12:00 -1°C° 0 mm 4 m/S 747 mmHg 89%
    13:00 -1°C° 0 mm 4 m/S 747 mmHg 87%
    14:00 -1°C° 0 mm 4 m/S 747 mmHg 85%
    15:00 -2°C° 0.1 mm 4 m/S 747 mmHg 85%
    16:00 -2°C° 0.1 mm 4 m/S 747 mmHg 86%
    17:00 -1°C° 0.1 mm 3 m/S 746 mmHg 86%
    18:00 -1°C° 0 mm 3 m/S 746 mmHg 87%
    19:00 -2°C° 0 mm 3 m/S 746 mmHg 87%
    20:00 -2°C° 0 mm 3 m/S 746 mmHg 87%
    21:00 -2°C° 0 mm 3 m/S 746 mmHg 89%
    22:00 -4°C° 0 mm 3 m/S 746 mmHg 90%
    23:00 -4°C° 0 mm 3 m/S 746 mmHg 92%
    Mehr zeigen